This demonstration page uses our WeatherBlox Daily Observations layout. Learn more.

Left ArrowRight Arrow

44.8408, -93.29828

Hourly Observations for May 13, 2015

Temp ( °F °C ) Dew Point ( °F °C ) Humidity (%) Winds ( mph kmh ) Pressure ( in mb ) Visibility ( mi km ) Precip ( " mm )
12:53 am 00:53 Mostly Clear 46 7.8 36 2.2 68 68 ESE 8 13 30.37 1029 10 16 0.00 0.00
1:53 am 01:53 Mostly Cloudy 47 8.3 36 2.2 66 66 ESE 9 15 30.37 1029 10 16 0.00 0.00
2:53 am 02:53 Mostly Cloudy 46 7.8 37 2.8 71 71 ESE 10 17 30.38 1029 10 16 0.00 0.00
3:53 am 03:53 Partly Cloudy 45 7.2 36 2.2 71 71 ESE 14 22 30.39 1029 10 16 0.00 0.00
4:53 am 04:53 Partly Cloudy 44 6.7 36 2.2 73 73 ESE 12 19 30.41 1030 10 16 0.00 0.00
5:53 am 05:53 Cloudy 44 6.7 35 1.7 71 71 E 12 19 30.40 1030 10 16 0.00 0.00
6:53 am 06:53 Mostly Cloudy 44 6.7 34 1.1 68 68 E 13 20 30.41 1030 10 16 0.00 0.00
7:53 am 07:53 Mostly Cloudy 46 7.8 34 1.1 63 63 ESE 14 22 30.43 1031 10 16 0.00 0.00
8:53 am 08:53 Mostly Cloudy 47 8.3 34 1.1 61 61 ESE 13 20 30.43 1031 10 16 0.00 0.00
9:53 am 09:53 Partly Cloudy 52 11.1 36 2.2 55 55 ESE 18 30 30.41 1030 10 16 0.00 0.00
10:53 am 10:53 Mostly Sunny 54 12.2 37 2.8 53 53 ESE 16 26 30.39 1029 10 16 0.00 0.00
11:53 am 11:53 Mostly Sunny 57 13.9 37 2.8 47 47 SE 14 22 30.37 1029 10 16 0.00 0.00
12:53 pm 12:53 Mostly Sunny 60 15.6 38 3.3 44 44 ESE 20 31 30.34 1027 10 16 0.00 0.00
1:53 pm 13:53 Mostly Sunny 62 16.7 38 3.3 41 41 SE 15 24 30.31 1027 10 16 0.00 0.00
2:53 pm 14:53 Mostly Sunny 64 17.8 39 3.9 40 40 SE 18 30 30.29 1026 10 16 0.00 0.00
3:53 pm 15:53 Partly Cloudy 66 18.9 40 4.4 39 39 ESE 16 26 30.27 1025 10 16 0.00 0.00
4:53 pm 16:53 Mostly Cloudy 67 19.4 40 4.4 37 37 SE 15 24 30.26 1025 10 16 0.00 0.00
5:53 pm 17:53 Mostly Cloudy 66 18.9 40 4.4 39 39 ESE 16 26 30.25 1025 10 16 0.00 0.00
6:53 pm 18:53 Mostly Cloudy 65 18.3 39 3.9 39 39 SE 15 24 30.24 1024 10 16 0.00 0.00
7:53 pm 19:53 Mostly Cloudy 64 17.8 39 3.9 40 40 SE 15 24 30.23 1024 10 16 0.00 0.00
8:53 pm 20:53 Mostly Cloudy 63 17.2 39 3.9 41 41 ESE 16 26 30.22 1023 10 16 0.00 0.00
9:53 pm 21:53 Cloudy 62 16.7 39 3.9 43 43 SE 15 24 30.23 1024 10 16 0.00 0.00
10:53 pm 22:53 Cloudy 59 15 39 3.9 48 48 SE 14 22 30.23 1024 10 16 0.00 0.00
11:53 pm 23:53 Cloudy 57 13.9 40 4.4 53 53 SE 12 19 30.22 1024 10 16 0.00 0.00

Powered by AerisWeather